View from above orbital plane
|
View from above satellite
|
Ground track
|
The orbit data is extracted from the following two-line orbital elements,
1 42430U 00055UA 22228.74119192 .00004362 00000-0 20524-2 0 9993
2 42430 98.9017 325.6511 0006358 162.5236 197.6160 14.20473195308860
Epoch (UTC): | 16 August 2022 17:47:18 |
Eccentricity: | 0.0006358 |
inclination: | 98.9017° |
perigee height: | 819 km |
apogee height: | 828 km |
right ascension of ascending node: | 325.6511° |
argument of perigee: | 162.5236° |
revolutions per day: | 14.20473195 |
mean anomaly at epoch: | 197.6160° |
orbit number at epoch: | 30886 |
The dashed part of the orbit path shows where the satellite is in the earth's shadow,
|
|